COSMOS 1655

Satellite information

Favourite Embed

Satellite Type and Status

PAYLOADIN ORBIT

Key statistics

Satellite COSMOS 1655 at a glance.

Uptime

14646

Days in orbit

Revolutions

≈ 13.7

Per day

Orbit

LEO

Low Earth Orbit

Inclination

83.0

Latest

Satellite identification and parameters

Extended collection of information and parameters for COSMOS 1655.

Object identification

Identified? True

Debris? False

Object name: COSMOS 1655

International designator: 1985-041A

Object number (NORAD): 15751

Object ID (CCSDS): 15751

Country: COMMONWEALTH OF INDEPENDENT STATES (CIS)

Current information (Y/N): Y

RCS size: LARGE

Orbital parameters

Period: 104.964 minutes

Inclination: 82.9505 deg

SMA: 7370.892 km

Apoapsis: 1012.067 km

Periapsis: 973.448 km

RAAN: 322.6194 deg

Eccentricy: 0.0026197

Argument of periapsis: 344.7973 deg

Mean anomaly: 85.0289 deg

Mean motion: 13.71900711 rev/day

Mean motion (dot): 0.00000056 rev/day2

B* drag term: 0.000044975 1/REarth

Two-line elements (TLE)

Creation date: July 4, 2025, 6:39 p.m.

Reference frame: TEME

Reference center: EARTH

Epoch: July 4, 2025, 11:56 a.m. UTC

TLE line 0: 0 COSMOS 1655

TLE line 1: 1 15751U 85041A 25185.49724231 .00000056 00000-0 44975-4 0 9994

TLE line 2: 2 15751 82.9505 322.6194 0026197 344.7973 85.0289 13.71900711 7020

Live tracking on map

Real-time ground track for satellite COSMOS 1655.

In-orbit conjunctions

A list of the most updated potential collisions computed for object COSMOS 1655.

Target Orbit TCA Probability of collision Miss distance Type
FENGYUN 1C DEB SSO 2025-04-04 01:05:26 0.0001219104 434.0 (m) DEBRIS
FENGYUN 1C DEB SSO 2025-03-28 17:23:25 0.0001105217 231.0 (m) DEBRIS
FENGYUN 1C DEB SSO 2024-11-25 00:52:21 0.0006246222 187.0 (m) DEBRIS
CZ-4C DEB SSO 2024-09-27 21:00:41 0.0001758374 80.0 (m) DEBRIS

Associated space launch

Civilian navigation satellite equivalent to the purely military Parus

COSMOS 1655 was lifted into orbit during the mission ‘Kosmos-3M | Tsikada 12’, on board a Kosmos-3M space rocket.

The launch took place on May 30, 1985, 1:14 a.m. from 132/1 (132L).

For more information about the launch, click the button.

Launch to space Kosmos-3M | Tsikada 12
Kosmos-3M | Tsikada 12

Agency: N/A

Status: Launch Successful

Launch date: May 30, 1985, 1:14 a.m. UTC

Rocket: Kosmos-3M

Launch pad: 132/1 (132L)

Location: Plesetsk Cosmodrome, Russian Federation

...

Latest news about this satellite

There are no fresh news available about this satellite. Check back as we update our databases every day.


Newsletter sign-up

Weekly statistics, charts and insights to help you stay on top of the space industry.